This is the latest recevied weather packets stored in our database for station/object KO6LQJ. If no packets are shown the sender has not sent any weather packets the latest 10 day(s).
| Time | Temp. | Humidity | Pressure | Rain* | Wind** | Luminosity | Snow |
|---|---|---|---|---|---|---|---|
| 1777833550 | 13.89° C | 88% | 1016.4 hPa | 0 mm | - | 174 W/m² | - |
| 1777833247 | 13.89° C | 88% | 1016.7 hPa | 0 mm | - | 167 W/m² | - |
| 1777832944 | 13.89° C | 88% | 1016.5 hPa | 0 mm | - | 157 W/m² | - |
| 1777832643 | 13.89° C | 88% | 1016.8 hPa | 0 mm | - | 114 W/m² | - |
| 1777832339 | 13.89° C | 87% | 1016.7 hPa | 0 mm | - | 118 W/m² | - |
| 1777832036 | 13.89° C | 87% | 1017.1 hPa | 0 mm | - | 105 W/m² | - |
| 1777831733 | 13.89° C | 87% | 1016.9 hPa | 0 mm | - | 102 W/m² | - |
| 1777831431 | 13.33° C | 86% | 1017 hPa | 0 mm | - | 95 W/m² | - |
| 1777831127 | 13.89° C | 86% | 1017.1 hPa | 0 mm | - | 87 W/m² | - |
| 1777830825 | 13.33° C | 86% | 1017.1 hPa | 1.27 mm | - | 66 W/m² | - |
| 1777830521 | 13.89° C | 86% | 1017 hPa | 1.27 mm | - | 59 W/m² | - |
| 1777830220 | 13.89° C | 86% | 1017 hPa | 0 mm | - | 65 W/m² | - |
| 1777829920 | 13.89° C | 86% | 1017.1 hPa | 0 mm | - | 58 W/m² | - |
| 1777829617 | 13.89° C | 86% | 1016.9 hPa | 1.78 mm | - | 56 W/m² | - |
| 1777829313 | 13.89° C | 85% | 1016.8 hPa | 1.78 mm | - | 58 W/m² | - |
| 1777829011 | 13.89° C | 85% | 1016.6 hPa | 0 mm | - | 66 W/m² | - |
| 1777828712 | 13.89° C | 85% | 1016.7 hPa | 0 mm | - | 58 W/m² | - |
| 1777828409 | 13.89° C | 85% | 1016.5 hPa | 0 mm | - | 57 W/m² | - |
| 1777828106 | 13.89° C | 84% | 1016.5 hPa | 0 mm | - | 48 W/m² | - |
| 1777827802 | 13.89° C | 84% | 1016.3 hPa | 1.27 mm | - | 39 W/m² | - |
| 1777827499 | 13.89° C | 84% | 1016.3 hPa | 1.27 mm | - | 40 W/m² | - |
| 1777827198 | 14.44° C | 84% | 1016.4 hPa | 0 mm | - | 40 W/m² | - |
| 1777826893 | 13.89° C | 84% | 1016.3 hPa | 0 mm | - | 45 W/m² | - |
| 1777826591 | 13.89° C | 83% | 1016.3 hPa | 1.78 mm | - | 53 W/m² | - |
| 1777826286 | 14.44° C | 83% | 1016 hPa | 1.78 mm | - | 40 W/m² | - |
* Rain latest hour (hover to see other rain measurements)
** Current wind speed in m/s (hover to see current wind gust speed)